RH
53 57 56 65 77 69 58 63 66 54 52 44 38 36 33 34 35 31 30 32 33 31 30 29 27 26 26 26 24 24 22 21 20 20 17 16 15 15 14 13 15 16 17
40 53 59 56 60 66 67 65 60 52 47 46 42 40 37 32 33 32 30 32 30 31 30 29 28 26 25 22 22 22 21 19 18 17 16 16 18 18 18 19 20 20 20
43 46 58 58 46 52 65 66 58 50 55 48 43 41 40 36 32 30 31 28 28 28 27 27 26 26 26 24 21 21 19 19 19 18 15 13 13 13 13 15 17 19 21
46 43 52 60 58 47 51 60 62 53 57 56 44 45 43 37 34 33 31 31 29 32 32 30 28 25 25 26 25 25 22 19 16 16 15 14 13 14 14 14 16 18 20
48 47 41 57 61 57 49 53 62 65 56 65 50 50 48 45 34 35 33 32 31 30 33 32 32 28 26 26 22 19 20 18 18 15 15 17 18 18 18 19 17 19 21
48 50 55 47 65 69 59 51 54 66 54 52 61 53 50 52 44 36 36 34 34 34 36 34 34 36 28 20 20 20 18 18 19 20 21 22 23 21 22 23 20 21 22
52 50 52 54 51 69 74 59 51 57 52 55 62 56 58 58 56 46 42 40 35 37 41 38 39 40 28 20 20 17 17 21 22 24 25 24 22 24 23 23 26 25 27
57 55 50 52 49 53 65 69 61 54 61 56 60 60 74 66 77 69 45 40 38 43 45 42 51 44 30 23 22 21 22 23 22 24 24 23 22 26 26 28 28 27 26
60 58 57 52 48 48 56 62 63 62 61 60 67 67 69 77 72 81 63 49 38 42 46 51 57 47 28 27 25 25 24 25 26 26 28 27 28 25 28 31 31 29 30
42 56 63 58 54 50 59 56 52 58 59 59 57 62 71 67 70 76 74 64 44 54 53 59 57 44 35 31 28 29 28 32 32 30 31 31 29 27 28 30 26 35 36
28 47 59 66 62 57 50 51 48 53 65 66 58 58 65 70 67 76 76 64 45 50 58 64 54 41 32 30 31 30 37 41 36 35 35 35 30 33 36 32 32 32 33
53 47 56 74 70 65 57 48 40 46 48 56 65 56 64 62 57 74 80 75 56 52 50 57 44 36 34 30 33 36 43 49 46 45 43 37 34 31 37 36 32 32 33
95 89 59 67 73 69 63 53 46 41 41 45 40 45 44 47 53 53 56 55 55 51 55 53 35 34 36 38 38 40 48 56 55 51 50 41 36 35 41 41 41 40 40
99 80 83 69 65 63 61 55 50 44 40 34 28 26 28 27 31 34 37 38 40 49 50 39 35 38 38 41 39 43 47 66 70 67 50 42 36 37 34 35 48 50 63
100 96 100 82 65 66 67 61 56 52 45 40 37 35 35 35 34 35 37 38 41 46 46 42 39 41 44 44 47 54 73 96 90 70 52 45 40 36 39 48 43 67 78
100 100 100 96 70 73 79 83 60 60 56 52 50 54 66 73 70 60 54 50 50 46 46 47 48 51 55 54 62 74 99 100 97 65 56 47 42 41 45 44 46 78 84
100 100 80 100 99 100 84 92 74 56 58 56 69 81 88 90 96 99 95 85 78 60 62 62 70 69 83 98 100 100 100 100 80 72 68 50 49 46 44 40 42 52 49
100 100 98 100 91 100 100 66 96 85 70 76 100 100 100 100 100 100 100 100 95 99 100 89 83 88 100 100 100 100 100 85 78 77 75 61 53 48 40 36 38 39 57
95 100 85 100 96 100 100 94 99 82 100 100 100 100 100 100 100 100 100 100 100 100 100 100 100 100 100 100 100 100 99 80 56 58 71 62 58 54 45 46 44 44 47
100 100 100 100 100 100 100 89 95 84 100 100 93 100 100 100 100 100 100 100 100 100 100 100 100 100 100 100 100 100 85 92 66 73 77 72 61 62 51 36 27 26 31
86 98 100 100 100 100 100 100 98 76 100 100 78 94 100 78 96 100 100 100 100 100 100 100 100 100 100 100 100 92 97 91 68 74 70 82 69 41 32 26 28 29 33
70 100 100 100 100 100 100 100 100 86 100 95 100 100 100 100 100 100 100 100 100 100 100 100 100 100 100 96 96 90 68 71 100 78 65 68 56 36 26 30 42 45 37
100 100 100 96 100 100 100 100 99 100 81 100 100 100 100 99 97 100 92 100 100 100 100 100 98 85 98 97 100 100 100 97 100 90 83 64 47 28 34 40 51 43 49
80 100 94 100 100 100 100 100 100 100 91 100 100 100 100 100 100 100 100 100 100 100 100 100 100 99 85 81 85 98 86 89 100 92 46 38 36 40 51 48 37 56 78
64 100 96 100 100 100 100 100 100 100 100 100 94 80 100 100 100 100 100 100 100 88 100 100 100 100 99 94 68 66 96 75 53 48 46 45 54 60 52 53 56 91 99
98 100 100 100 100 100 100 100 100 100 100 98 93 100 93 100 100 100 100 100 100 100 100 100 100 100 100 100 100 80 46 58 63 54 40 56 68 57 53 77 97 100 98
Wind_Speed
46 46 45 43 42 40 38 35 34 32 29 25 23 23 21 21 21 19 18 17 16 15 15 15 15 15 15 15 16 18 19 21 22 23 25 26 28 30 31 32 32 32 33
48 49 49 48 46 44 41 39 37 35 31 30 27 25 23 23 23 23 21 20 21 20 20 20 19 19 19 21 21 22 23 24 24 24 25 26 26 26 27 29 31 32 33
52 52 52 51 50 48 45 43 41 38 34 32 30 27 27 26 25 24 25 24 23 23 23 23 24 24 25 25 26 25 24 23 23 22 20 20 21 22 24 27 29 31 33
55 54 54 54 52 50 48 46 43 40 38 35 33 31 31 28 27 26 26 26 26 25 25 24 24 24 25 26 25 22 19 17 17 19 21 23 25 27 29 30 32 33 34
59 58 57 56 55 53 50 48 45 42 40 40 39 35 35 33 30 27 27 26 27 27 27 27 27 28 24 21 18 16 16 17 20 22 22 23 26 28 31 32 32 32 33
62 61 60 59 58 56 55 51 49 46 45 43 42 39 38 37 36 32 30 30 28 27 28 30 28 28 23 20 21 20 20 21 21 22 24 26 29 30 33 34 34 34 33
67 64 62 61 59 58 57 55 53 52 49 46 44 43 42 40 41 38 36 34 32 30 31 31 31 28 25 25 24 23 22 23 23 25 28 30 33 34 33 33 33 34 36
72 68 65 62 61 59 59 57 55 53 52 49 48 45 44 44 42 42 40 39 35 33 34 33 31 29 28 27 26 26 25 27 29 30 32 34 35 34 34 35 35 37 41
74 72 68 64 62 60 59 59 57 55 54 52 50 48 47 46 43 44 43 43 39 37 36 33 32 30 30 29 28 28 28 30 33 33 35 37 37 38 38 37 38 43 43
75 73 70 67 63 62 61 59 58 57 56 54 51 50 49 48 46 46 46 45 40 39 36 34 31 29 29 30 30 30 31 33 36 38 39 37 38 38 39 41 48 46 41
76 72 70 70 65 63 62 61 58 56 56 54 53 52 51 50 48 47 48 47 41 39 36 35 32 29 31 32 32 32 33 36 38 40 41 38 40 41 42 45 44 41 36
69 75 72 72 69 66 62 61 58 56 54 52 52 51 51 49 47 46 47 46 42 40 36 35 32 30 32 34 34 35 36 38 39 40 40 39 41 41 42 42 39 38 38
43 66 73 72 71 67 64 61 59 55 53 52 49 48 49 47 46 44 44 44 41 40 37 35 34 34 35 36 37 38 39 41 42 42 41 42 41 42 40 39 38 39 38
83 74 62 70 69 69 66 62 59 56 55 52 49 47 47 44 43 42 40 40 39 38 37 36 37 37 38 38 39 41 43 44 45 44 42 40 40 39 38 39 40 42 42
78 66 54 60 64 62 67 66 62 59 56 52 52 49 47 47 44 44 41 41 39 39 39 40 40 40 41 41 42 43 45 46 45 43 43 40 41 40 40 39 44 45 46
68 70 76 66 54 52 56 61 64 61 58 54 52 48 45 42 45 45 44 42 42 42 43 42 44 44 44 46 46 45 46 44 43 42 42 41 40 42 43 46 47 46 48
81 74 65 61 46 52 62 66 67 66 60 55 53 49 45 42 44 47 47 46 46 45 44 45 46 45 46 47 45 45 44 41 44 43 42 42 44 46 45 48 50 52 55
89 77 77 66 57 80 68 58 59 64 61 58 51 50 45 47 46 51 51 51 50 48 48 48 48 48 46 44 45 45 44 45 48 47 45 47 49 48 51 56 54 54 56
91 86 72 65 67 68 68 65 61 52 54 48 45 43 42 44 46 49 53 53 53 53 49 45 45 44 42 44 46 47 47 47 47 48 48 50 52 54 57 57 54 58 55
90 85 84 70 79 75 67 65 67 63 55 52 50 45 43 48 48 49 52 54 54 53 50 48 46 44 41 43 45 48 50 51 52 51 52 56 55 58 61 61 65 64 59
93 92 90 80 84 76 74 81 71 59 60 57 59 48 47 53 51 50 51 52 53 49 51 50 51 50 49 50 49 52 53 52 53 54 56 56 59 63 65 68 68 62 62
103 87 84 93 83 69 73 78 68 65 64 56 56 57 54 58 52 44 47 47 54 53 52 52 55 55 57 57 56 56 60 55 55 58 60 63 63 66 73 71 68 66 68
102 97 94 95 87 80 75 74 72 70 67 63 68 56 54 55 47 47 52 48 51 52 56 56 58 60 62 59 58 57 57 59 62 62 64 67 72 75 73 73 69 71 74
100 90 97 89 84 78 77 73 65 72 66 61 58 57 53 48 46 50 49 51 56 57 58 57 57 60 62 62 61 62 61 64 63 64 72 73 79 75 75 70 76 69 73
100 94 93 92 82 80 79 74 72 69 63 65 68 63 61 62 56 56 55 53 55 56 55 53 54 52 56 62 64 64 64 65 70 71 74 76 73 76 74 75 74 71 77
96 94 91 87 89 89 79 76 71 68 67 72 72 69 64 64 61 58 58 53 51 54 52 56 60 57 57 64 70 70 65 67 71 74 74 75 79 80 81 74 73 78 86
Wind_Direction
238 239 237 232 231 235 238 240 246 250 253 250 252 249 255 257 253 249 249 248 250 254 258 261 260 260 262 264 267 268 268 270 271 274 276 281 284 287 287 286 286 287 286
237 235 236 236 232 231 234 237 242 247 247 249 249 250 252 250 253 252 252 252 253 254 257 262 265 265 266 267 269 271 273 276 277 281 282 287 291 292 292 292 294 293 293
237 237 235 237 237 234 233 235 239 243 244 248 248 250 250 253 253 253 255 252 255 260 263 266 269 270 272 274 275 276 278 280 284 287 291 295 296 298 298 298 299 299 297
235 235 235 235 237 237 234 235 237 240 241 244 248 253 254 250 251 251 251 253 255 260 266 270 272 275 276 279 278 276 275 278 284 290 294 297 300 303 303 300 299 298 296
236 234 235 234 235 237 236 235 234 236 238 242 248 251 255 256 255 250 251 251 254 260 269 275 279 281 278 268 264 265 267 274 281 288 293 299 303 304 301 302 300 300 298
234 234 234 234 233 235 237 236 236 236 239 241 247 250 252 256 259 258 255 255 256 260 267 275 283 284 273 256 253 250 259 275 283 291 298 300 303 304 306 307 303 302 305
232 233 232 233 234 234 237 238 238 239 240 240 244 247 250 254 260 261 260 259 258 262 268 275 280 280 261 255 260 266 272 278 286 294 299 301 303 309 308 309 309 309 309
231 231 232 232 233 234 235 238 241 240 240 240 244 246 249 254 258 263 264 263 262 264 268 273 279 273 252 255 263 267 276 283 290 294 297 299 304 305 305 306 304 307 307
230 228 231 231 232 233 235 236 239 239 240 242 243 245 248 251 256 260 266 267 265 265 268 272 275 267 251 255 264 273 281 286 288 292 298 301 306 305 304 302 302 304 303
227 228 228 230 232 232 234 236 238 240 243 243 244 246 248 251 254 258 262 266 270 270 271 273 273 260 251 257 267 274 281 285 289 293 296 300 303 303 305 303 306 302 302
229 228 226 228 230 232 234 236 238 241 243 245 247 246 248 251 253 255 259 264 269 271 272 271 269 259 252 260 270 276 284 287 292 294 298 301 302 303 300 304 306 305 303
228 228 227 225 228 230 232 235 237 238 241 244 248 249 249 250 252 255 259 263 268 272 271 268 266 264 262 265 273 280 285 288 290 293 296 297 301 304 301 303 306 305 305
226 235 228 225 226 229 232 234 235 237 239 241 243 244 247 246 249 253 258 263 266 268 266 264 263 263 266 271 274 278 282 285 288 291 294 297 300 303 301 302 302 300 301
196 226 227 227 228 229 233 234 236 237 238 239 242 243 248 251 253 256 259 261 263 264 264 264 262 265 268 271 272 276 282 284 285 291 294 296 300 297 297 306 301 301 300
192 213 210 224 227 231 234 236 236 237 239 240 243 245 249 253 256 257 259 261 261 263 264 266 267 269 271 272 275 278 282 283 286 291 291 293 294 292 296 298 306 295 297
200 202 208 218 225 231 237 237 238 237 238 241 244 247 250 256 257 257 260 259 259 260 263 265 269 271 272 273 277 278 281 282 284 289 288 291 287 292 295 299 304 295 292
194 202 199 206 215 227 243 241 240 238 237 240 244 245 250 259 261 261 260 262 259 259 262 265 267 267 270 274 277 279 281 281 284 287 286 287 285 293 295 298 301 295 295
190 194 199 209 194 213 223 239 236 237 238 240 239 244 252 259 265 267 261 262 262 261 263 263 264 267 271 274 276 278 277 278 286 284 282 283 288 288 291 298 301 301 297
182 184 193 195 193 210 233 228 235 237 240 237 244 245 249 259 266 270 269 264 266 262 262 262 267 271 274 276 275 277 277 282 286 285 280 285 287 287 293 298 299 299 295
188 186 187 178 190 203 209 236 238 235 239 237 247 249 255 259 261 263 268 269 268 262 260 262 261 262 267 267 270 273 277 279 284 279 282 284 286 287 291 296 302 302 295
184 186 186 190 193 206 218 222 231 238 231 239 250 243 251 256 252 257 264 266 262 258 257 258 259 260 260 263 266 269 273 277 281 281 282 281 281 287 294 298 303 300 297
187 188 195 200 200 200 203 216 223 228 236 241 243 242 248 250 248 254 255 259 260 257 257 259 260 260 262 263 263 265 270 279 280 281 282 280 285 291 300 300 302 298 303
190 189 196 197 202 209 211 213 219 227 232 243 246 241 242 240 240 253 248 250 258 259 257 261 262 263 262 262 264 269 272 277 277 280 281 285 291 299 300 299 298 302 305
189 192 197 199 202 208 212 216 222 229 231 230 238 234 230 233 247 248 255 252 255 259 259 260 263 261 263 262 263 264 269 273 272 276 287 293 297 298 301 298 302 298 304
193 193 197 200 201 204 209 214 216 225 230 230 236 240 240 240 247 248 253 258 253 259 250 255 259 260 263 265 267 265 266 271 280 288 294 295 295 298 298 296 298 296 301
194 196 197 200 204 208 216 211 213 222 225 228 236 237 240 243 247 246 243 245 246 253 253 256 252 257 269 270 267 268 276 280 284 289 292 289 292 296 300 295 293 295 301